02:45
Airports
History
Links
Donate
Help keep this website running!
PayPal
Bitcoin
This page is community maintained. The information is intended for PC simulator navigation or reference.
Always use approved charts for navigation.
SJSH
Sonhar
Sonhar (SJSH)
Governador Celso Ramos, Santa Catarina, Brazil (88190)
4
Lat/Lng:27° 22' 14" S / 48° 36' 44" W
-27.370556 / -48.612222
Elevation:33'ft / 10mMSL
ID / ICAO:SJSH
Runways:1
Longest:05-23
Dirt 596m / 1,954ft
Nearby Weather02:00 GMT 2018-02-18
Nearby weather at SBFL, Hercillo Luz located 21.1 nautical miles from SJSH
Altimeter: 30.00
Visibility: 6.2 statute miles
Wind: 0 knots (from 000°)
Temp: 22°c / 72°f
Humidity: 83.1%

METAR: SBFL 180200Z 00000KT 9999 SCT048 22/19 Q1016

(Powered by phpweather)
Runway 05 / 23
Dimensions:595.5 x 50m 1954' x 164'ft
Surface:Dirt
Runway 05 [A]Runway 23 [B]
Heading:028°TH 208°TH
Lat:
Lng:
27° 22' 22.5"S
48° 36' 49.23"W
27° 22' 5.5"S
48° 36' 38.77"W
User Notes and Comments
27° 22' 14" S / 48° 36' 44" W
Distance To
Airport ID:
Nearby Airports
4 Aeroportobelo 13.7 NM
SDYS N 355°
4 Costa Esmeralda 14.1 NM
SDEN N 357°
(U) Aeroclube de Santa Catarina 17.1 NM
SSKT SSW 192°
(C) Hercillo Luz 21.1 NM
SBFL ( WX ) SSE 168°
4 Itajai - Campo Comandantes 29.6 NM
SIJY NNW 334°
(C) Ministro Victor Konder 34.0 NM
SBNF N 355°
(C) Blumenau 47.5 NM
SSBL NW 321°
VFR Chart
Flight Planning at SkyVector.com